Location: *
(49.4547°N, 7.9131°E)
Time: 13:44:14
(UTC+00:00)

Cosmos 1959 Rocket - Pass Details

Date: 22 September 2019
Orbit: 947 x 997 km, 82.9° (Epoch: 16 October)

Event Time Altitude Azimuth Distance (km) Brightness Sun altitude
Rises 19:03:37 0° 351° (N) 3,634 7.9 -16.2°
Reaches altitude 10° 19:06:07 10° 352° (N) 2,688 7.2 -16.6°
Maximum altitude 19:12:17 80° 80° (E) 978 4.4 -17.5°
Drops below altitude 10° 19:18:27 10° 168° (SSE) 2,697 6.5 -18.4°
Enters shadow 19:18:28 10° 168° (SSE) 2,702 6.5 -18.4°
